カタログに戻る

STARLINK-32696

運用中通信VLEO
NORAD 62310·PAYLOAD·🇺🇸 United States

打ち上げ Dec 13, 2024 から Vandenberg Space Force Base

Loading…

次のパス (今後24時間)

TLE

最新Source: CelesTrak SupGP

元期: Sep 15, 2026, 02:13 UTC

1 62310C 24239K   26258.09284722 -.00001811  00000+0 -53493-4 0  2587
2 62310  53.1601  30.6400 0001136  80.2274 223.6612 15.34395054    19

AllMySatでSTARLINK-32696をリアルタイム追跡

Download on the App Store